Ткибули

Грузия     42°21′08″N   42°59′47″E
темп.,
°C
ветер,
м/с
пор.,
м/с
влажн.,
%
обл.,
%
осадки,
мм/ч
давл.,
гПа
погр.,
м
17 апреля, сб
сб1701:00+10юз1283100 0.0 102130
04:00+10в128277 0.0 102167
07:00+9в228536 0.0 102235
10:00+18вюв234883 0.0 1020598
13:00+21зюз3243100 0.0 1018920
16:00+18зюз666680 0.0 1019853
19:00+11з3684100 0.0 1023493
22:00+10всв2292100 0.4 102234
18 апреля, вс
вс1801:00+11всв2287100 0.0 102028
04:00+12сз1185100 0.0 102011
07:00+13всв3481100 0.0 101980
10:00+20в455296 0.0 1017610
13:00+25в2239100 0.0 10151253
16:00+24з61141100 0.0 10152851
19:00+18з2467100 0.0 101798
22:00+16св2275100 0.3 101924
19 апреля, пн
пн1901:00+14всв1179100 0.0 101913
04:00+13всв227997 0.0 101818
07:00+13св2280100 0.1 101832
10:00+19в2359100 0.2 1017413
13:00+24юв1244100 0.1 10151231
16:00+25з233999 0.1 10141133
19:00+22вюв115457 0.0 101211
22:00+17св436064 0.0 101343
20 апреля, вт
вт2001:00+17всв4858100 0.0 1012138
04:00+18всв61355100 0.0 1010361
07:00+19всв71753100 0.0 1009560
10:00+22всв71253100 0.0 1008579
13:00+22зюз6455100 0.0 1009436
16:00+14ссв4691100 2.6 1011267
19:00+15з3394100 3.1 1012391
22:00+12юз3699100 4.7 1015417
21 апреля, ср
ср2101:00+11з3899100 4.6 1018585
04:00+10з4897100 6.4 1019638
07:00+9зюз2595100 1.0 1019392
10:00+9юз1292100 1.2 1019303
13:00+11з228592 0.2 1019509
16:00+12зюз348298 0.3 1017682
19:00+12з3789100 0.3 1019648
22:00+10юз2495100 0.6 1021210